ONE2112 SBSP-SBRJ

Flight info

Callsign ONE2112
Flight time 0h 39m
Altitude 27000
Route NIBRU UZ171 KEVUN
Aircraft A319/M-SDE3FGHIRWY/LB1

Departure

Time 2026-05-08 00:10
Airport Congonhas–Deputado Freitas Nobre Airport (SBSP)

Arrival

Time 2026-05-08 00:49
Airport Santos Dumont Airport (SBRJ)
Time Latitude Longitude Altitude Speed Heading
2026-05-07 23:41 -23.62689 -46.65846 2601 ft 0 kts 237°
2026-05-07 23:46 -23.62657 -46.65863 2601 ft 0 kts 237°
2026-05-07 23:57 -23.62651 -46.65853 2601 ft 3 kts 229°
2026-05-07 23:57 -23.62636 -46.65839 2601 ft 3 kts 199°
2026-05-07 23:58 -23.62619 -46.65836 2601 ft 2 kts 156°
2026-05-07 23:58 -23.62614 -46.65839 2601 ft 0 kts 147°
2026-05-08 00:00 -23.62615 -46.65838 2601 ft 1 kts 147°
2026-05-08 00:00 -23.62630 -46.65828 2601 ft 4 kts 147°
2026-05-08 00:01 -23.62666 -46.65803 2601 ft 8 kts 148°
2026-05-08 00:01 -23.62723 -46.65765 2601 ft 11 kts 148°
2026-05-08 00:01 -23.62797 -46.65713 2601 ft 14 kts 148°
2026-05-08 00:01 -23.62849 -46.65639 2602 ft 10 kts 104°
2026-05-08 00:02 -23.62898 -46.65596 2603 ft 9 kts 148°
2026-05-08 00:02 -23.62952 -46.65558 2603 ft 9 kts 147°
2026-05-08 00:02 -23.63006 -46.65522 2603 ft 9 kts 154°
2026-05-08 00:02 -23.63071 -46.65509 2602 ft 10 kts 158°
2026-05-08 00:03 -23.63133 -46.65468 2602 ft 11 kts 147°
2026-05-08 00:03 -23.63205 -46.65418 2602 ft 14 kts 147°
2026-05-08 00:03 -23.63307 -46.65347 2602 ft 21 kts 148°
2026-05-08 00:03 -23.63438 -46.65255 2601 ft 23 kts 146°
2026-05-08 00:04 -23.63508 -46.65183 2600 ft 11 kts 95°
2026-05-08 00:04 -23.63462 -46.65133 2600 ft 8 kts 33°
2026-05-08 00:04 -23.63437 -46.65112 2600 ft 2 kts 358°
2026-05-08 00:04 -23.63429 -46.65116 2601 ft 3 kts 332°
2026-05-08 00:05 -23.63424 -46.65121 2601 ft 0 kts 324°
2026-05-08 00:05 -23.63419 -46.65124 2602 ft 0 kts 326°
2026-05-08 00:09 -23.63395 -46.65142 2604 ft 24 kts 326°
2026-05-08 00:09 -23.63042 -46.65385 2612 ft 96 kts 328°
2026-05-08 00:10 -23.62303 -46.65896 2604 ft 153 kts 328°
2026-05-08 00:10 -23.61341 -46.66563 3025 ft 164 kts 329°
2026-05-08 00:10 -23.60379 -46.67210 3710 ft 161 kts 336°
2026-05-08 00:10 -23.59238 -46.67333 4022 ft 180 kts 12°
2026-05-08 00:11 -23.58169 -46.66448 4182 ft 216 kts 55°
2026-05-08 00:11 -23.57889 -46.64762 4563 ft 246 kts 93°
2026-05-08 00:11 -23.58458 -46.62973 5260 ft 255 kts 111°
2026-05-08 00:11 -23.59338 -46.61298 5452 ft 253 kts 118°
2026-05-08 00:12 -23.60156 -46.59573 5515 ft 265 kts 112°
2026-05-08 00:12 -23.60968 -46.57650 5539 ft 287 kts 107°
2026-05-08 00:12 -23.61654 -46.55588 5487 ft 292 kts 114°
2026-05-08 00:12 -23.62864 -46.53799 5941 ft 300 kts 129°
2026-05-08 00:13 -23.64321 -46.52157 6881 ft 302 kts 134°
2026-05-08 00:13 -23.65859 -46.50576 7738 ft 306 kts 136°
2026-05-08 00:13 -23.67434 -46.48995 8588 ft 310 kts 136°
2026-05-08 00:13 -23.68992 -46.47352 9423 ft 313 kts 129°
2026-05-08 00:14 -23.70185 -46.45360 10188 ft 317 kts 112°
2026-05-08 00:14 -23.70851 -46.43007 10443 ft 336 kts 94°
2026-05-08 00:14 -23.70841 -46.40409 10742 ft 348 kts 77°
2026-05-08 00:14 -23.70424 -46.37780 11375 ft 354 kts 77°
2026-05-08 00:15 -23.70026 -46.35119 12094 ft 357 kts 78°
2026-05-08 00:15 -23.69650 -46.32435 12796 ft 359 kts 78°
2026-05-08 00:15 -23.69280 -46.29726 13499 ft 362 kts 78°
2026-05-08 00:15 -23.68904 -46.27005 14129 ft 364 kts 78°
2026-05-08 00:16 -23.68520 -46.24261 14686 ft 368 kts 78°
2026-05-08 00:16 -23.68130 -46.21490 15238 ft 371 kts 78°
2026-05-08 00:16 -23.67733 -46.18691 15794 ft 375 kts 78°
2026-05-08 00:16 -23.67327 -46.15869 16342 ft 378 kts 79°
2026-05-08 00:17 -23.66919 -46.13067 16906 ft 381 kts 78°
2026-05-08 00:17 -23.66501 -46.10199 17463 ft 384 kts 79°
2026-05-08 00:17 -23.66083 -46.07311 18012 ft 388 kts 79°
2026-05-08 00:17 -23.65663 -46.04392 18524 ft 391 kts 78°
2026-05-08 00:18 -23.65241 -46.01444 18983 ft 396 kts 79°
2026-05-08 00:18 -23.64815 -45.98461 19426 ft 400 kts 79°
2026-05-08 00:18 -23.64383 -45.95440 19824 ft 406 kts 79°
2026-05-08 00:18 -23.63942 -45.92386 20287 ft 410 kts 80°
2026-05-08 00:19 -23.63496 -45.89299 20723 ft 415 kts 80°
2026-05-08 00:19 -23.63045 -45.86174 21156 ft 420 kts 80°
2026-05-08 00:19 -23.62587 -45.83011 21621 ft 424 kts 80°
2026-05-08 00:19 -23.62122 -45.79826 22062 ft 428 kts 80°
2026-05-08 00:20 -23.61650 -45.76603 22506 ft 432 kts 81°
2026-05-08 00:20 -23.61178 -45.73358 22933 ft 436 kts 81°
2026-05-08 00:20 -23.60703 -45.70080 23353 ft 440 kts 81°
2026-05-08 00:20 -23.60224 -45.66770 23718 ft 444 kts 81°
2026-05-08 00:21 -23.59745 -45.63482 24062 ft 447 kts 81°
2026-05-08 00:21 -23.59255 -45.60123 24429 ft 450 kts 81°
2026-05-08 00:21 -23.58759 -45.56747 24797 ft 452 kts 81°
2026-05-08 00:21 -23.58259 -45.53355 25166 ft 455 kts 81°
2026-05-08 00:22 -23.57754 -45.49937 25526 ft 457 kts 81°
2026-05-08 00:22 -23.57241 -45.46502 25877 ft 460 kts 81°
2026-05-08 00:22 -23.56638 -45.43068 26239 ft 462 kts 78°
2026-05-08 00:22 -23.55935 -45.39640 26595 ft 465 kts 77°
2026-05-08 00:23 -23.55169 -45.36211 26921 ft 467 kts 76°
2026-05-08 00:23 -23.54381 -45.32774 27002 ft 465 kts 76°
2026-05-08 00:23 -23.53607 -45.29374 27021 ft 461 kts 76°
2026-05-08 00:23 -23.52856 -45.25978 27016 ft 459 kts 77°
2026-05-08 00:24 -23.52137 -45.22639 27018 ft 459 kts 77°
2026-05-08 00:24 -23.51421 -45.19251 27019 ft 459 kts 77°
2026-05-08 00:24 -23.50710 -45.15856 27005 ft 459 kts 77°
2026-05-08 00:24 -23.50000 -45.12461 27003 ft 459 kts 77°
2026-05-08 00:25 -23.49286 -45.09073 27001 ft 459 kts 77°
2026-05-08 00:25 -23.48564 -45.05683 27002 ft 459 kts 77°
2026-05-08 00:25 -23.47837 -45.02295 27001 ft 459 kts 77°
2026-05-08 00:25 -23.47104 -44.98903 27001 ft 459 kts 77°
2026-05-08 00:26 -23.46348 -44.95523 26997 ft 459 kts 74°
2026-05-08 00:26 -23.45304 -44.92284 27001 ft 459 kts 69°
2026-05-08 00:26 -23.44177 -44.89029 27003 ft 459 kts 69°
2026-05-08 00:26 -23.43057 -44.85794 27003 ft 451 kts 69°
2026-05-08 00:27 -23.41975 -44.82658 26992 ft 433 kts 69°
2026-05-08 00:27 -23.40938 -44.79646 27006 ft 417 kts 69°
2026-05-08 00:27 -23.39938 -44.76740 26992 ft 402 kts 69°
2026-05-08 00:27 -23.38973 -44.73938 26935 ft 389 kts 69°
2026-05-08 00:28 -23.38034 -44.71220 26816 ft 378 kts 69°
2026-05-08 00:28 -23.37121 -44.68586 26691 ft 366 kts 69°
2026-05-08 00:28 -23.36232 -44.66032 26568 ft 355 kts 69°
2026-05-08 00:28 -23.35369 -44.63544 26333 ft 349 kts 69°
2026-05-08 00:29 -23.34517 -44.61085 26021 ft 345 kts 69°
2026-05-08 00:29 -23.33675 -44.58653 25711 ft 342 kts 69°
2026-05-08 00:29 -23.32838 -44.56238 25376 ft 340 kts 69°
2026-05-08 00:29 -23.32009 -44.53838 25039 ft 338 kts 69°
2026-05-08 00:30 -23.31188 -44.51452 24701 ft 336 kts 69°
2026-05-08 00:30 -23.30374 -44.49079 24375 ft 334 kts 69°
2026-05-08 00:30 -23.29566 -44.46719 24053 ft 332 kts 69°
2026-05-08 00:30 -23.28759 -44.44370 23725 ft 330 kts 69°
2026-05-08 00:31 -23.27949 -44.42042 23340 ft 330 kts 69°
2026-05-08 00:31 -23.27119 -44.39668 22657 ft 337 kts 68°
2026-05-08 00:31 -23.26300 -44.37326 22488 ft 326 kts 68°
2026-05-08 00:31 -23.25499 -44.35043 22167 ft 321 kts 68°
2026-05-08 00:32 -23.24710 -44.32790 21842 ft 316 kts 68°
2026-05-08 00:32 -23.23943 -44.30594 21489 ft 314 kts 68°
2026-05-08 00:32 -23.23173 -44.28388 21182 ft 309 kts 68°
2026-05-08 00:32 -23.22414 -44.26216 20844 ft 306 kts 68°
2026-05-08 00:33 -23.21662 -44.24068 20518 ft 303 kts 68°
2026-05-08 00:33 -23.20915 -44.21937 20186 ft 300 kts 68°
2026-05-08 00:33 -23.20176 -44.19830 19849 ft 297 kts 68°
2026-05-08 00:33 -23.19444 -44.17744 19539 ft 294 kts 67°
2026-05-08 00:34 -23.18718 -44.15678 19241 ft 291 kts 67°
2026-05-08 00:34 -23.17987 -44.13598 18687 ft 298 kts 67°
2026-05-08 00:34 -23.17242 -44.11484 18236 ft 299 kts 66°
2026-05-08 00:34 -23.16497 -44.09371 17723 ft 300 kts 67°
2026-05-08 00:35 -23.15761 -44.07282 17217 ft 300 kts 67°
2026-05-08 00:35 -23.15017 -44.05172 16717 ft 298 kts 66°
2026-05-08 00:35 -23.14279 -44.03072 16233 ft 297 kts 67°
2026-05-08 00:35 -23.13542 -44.00979 15753 ft 296 kts 67°
2026-05-08 00:36 -23.12810 -43.98898 15282 ft 292 kts 66°
2026-05-08 00:36 -23.12108 -43.96891 15157 ft 277 kts 67°
2026-05-08 00:36 -23.11430 -43.94956 14984 ft 272 kts 67°
2026-05-08 00:36 -23.10744 -43.93018 14670 ft 273 kts 67°
2026-05-08 00:37 -23.10072 -43.91117 14543 ft 267 kts 66°
2026-05-08 00:37 -23.09393 -43.89202 13954 ft 280 kts 66°
2026-05-08 00:37 -23.08919 -43.87871 13538 ft 289 kts 66°
2026-05-08 00:38 -23.07469 -43.83770 12780 ft 291 kts 66°
2026-05-08 00:38 -23.06515 -43.81069 12388 ft 288 kts 66°
2026-05-08 00:38 -23.05801 -43.79047 12096 ft 286 kts 66°
2026-05-08 00:38 -23.05091 -43.77036 11772 ft 284 kts 66°
2026-05-08 00:39 -23.04614 -43.75686 11630 ft 284 kts 66°
2026-05-08 00:39 -23.03892 -43.73648 10991 ft 294 kts 65°
2026-05-08 00:39 -23.03155 -43.71567 10325 ft 296 kts 65°
2026-05-08 00:39 -23.02412 -43.69479 9660 ft 297 kts 65°
2026-05-08 00:40 -23.01677 -43.67417 8958 ft 296 kts 65°
2026-05-08 00:40 -23.00933 -43.65332 8256 ft 295 kts 65°
2026-05-08 00:40 -23.00193 -43.63251 7582 ft 295 kts 65°
2026-05-08 00:40 -22.99419 -43.61212 7126 ft 285 kts 62°
2026-05-08 00:41 -22.98601 -43.59290 6999 ft 279 kts 60°
2026-05-08 00:41 -22.97753 -43.57397 7000 ft 278 kts 59°
2026-05-08 00:41 -22.96898 -43.55514 7000 ft 278 kts 59°
2026-05-08 00:41 -22.96046 -43.53630 6982 ft 279 kts 59°
2026-05-08 00:42 -22.95186 -43.51716 6476 ft 286 kts 59°
2026-05-08 00:42 -22.94338 -43.49797 6194 ft 276 kts 60°
2026-05-08 00:42 -22.93534 -43.47921 5724 ft 272 kts 62°
2026-05-08 00:42 -22.92758 -43.46074 5420 ft 265 kts 60°
2026-05-08 00:43 -22.92013 -43.44289 5174 ft 253 kts 60°
2026-05-08 00:43 -22.91319 -43.42624 4959 ft 237 kts 61°
2026-05-08 00:43 -22.90658 -43.41045 4764 ft 225 kts 60°
2026-05-08 00:43 -22.90010 -43.39515 4560 ft 221 kts 60°
2026-05-08 00:44 -22.89370 -43.38011 4365 ft 219 kts 61°
2026-05-08 00:44 -22.88732 -43.36514 4171 ft 217 kts 61°
2026-05-08 00:44 -22.88360 -43.34914 3970 ft 223 kts 83°
2026-05-08 00:44 -22.88473 -43.33227 3679 ft 226 kts 92°
2026-05-08 00:45 -22.88638 -43.31531 3393 ft 226 kts 92°
2026-05-08 00:45 -22.88795 -43.29830 3104 ft 226 kts 92°
2026-05-08 00:45 -22.88948 -43.28156 2805 ft 219 kts 93°
2026-05-08 00:45 -22.89144 -43.26580 2570 ft 203 kts 103°
2026-05-08 00:46 -22.89683 -43.25220 2280 ft 190 kts 114°
2026-05-08 00:46 -22.90248 -43.23971 2021 ft 178 kts 114°
2026-05-08 00:46 -22.90763 -43.22822 1799 ft 160 kts 113°
2026-05-08 00:46 -22.91220 -43.21802 1598 ft 146 kts 113°
2026-05-08 00:47 -22.91652 -43.20834 1403 ft 141 kts 111°
2026-05-08 00:47 -22.92160 -43.19940 1178 ft 143 kts 137°
2026-05-08 00:47 -22.93014 -43.19388 1013 ft 143 kts 149°
2026-05-08 00:47 -22.93899 -43.18916 807 ft 141 kts 151°
2026-05-08 00:48 -22.94716 -43.18348 703 ft 138 kts 129°
2026-05-08 00:48 -22.94997 -43.17403 691 ft 135 kts 78°
2026-05-08 00:48 -22.94531 -43.16569 590 ft 129 kts 40°
2026-05-08 00:48 -22.93757 -43.16081 392 ft 131 kts 14°
2026-05-08 00:49 -22.92822 -43.16160 247 ft 137 kts 357°
2026-05-08 00:49 -22.91893 -43.16226 84 ft 133 kts 357°
2026-05-08 00:49 -22.91026 -43.16283 24 ft 92 kts 357°
2026-05-08 00:49 -22.90659 -43.16307 27 ft 43 kts 356°
2026-05-08 00:50 -22.90510 -43.16325 26 ft 15 kts 330°
2026-05-08 00:50 -22.90494 -43.16434 23 ft 16 kts 266°
2026-05-08 00:50 -22.90502 -43.16541 25 ft 12 kts 248°
2026-05-08 00:50 -22.90582 -43.16553 24 ft 12 kts 175°
2026-05-08 00:51 -22.90671 -43.16548 22 ft 13 kts 177°
2026-05-08 00:51 -22.90764 -43.16544 22 ft 14 kts 178°
2026-05-08 00:51 -22.90859 -43.16551 22 ft 14 kts 180°
2026-05-08 00:51 -22.90957 -43.16544 22 ft 14 kts 176°
2026-05-08 00:52 -22.91059 -43.16536 23 ft 15 kts 175°
2026-05-08 00:52 -22.91146 -43.16517 23 ft 8 kts 176°
2026-05-08 00:52 -22.91193 -43.16514 23 ft 5 kts 176°
2026-05-08 00:52 -22.91210 -43.16531 24 ft 2 kts 264°
2026-05-08 00:53 -22.91207 -43.16550 22 ft 3 kts 269°
2026-05-08 00:53 -22.91209 -43.16575 22 ft 3 kts 267°
2026-05-08 00:53 -22.91209 -43.16581 22 ft 0 kts 267°